TimeCDT,TemperatureF,Dew PointF,Humidity,Sea Level PressureIn,VisibilityMPH,Wind Direction,Wind SpeedMPH,Gust SpeedMPH,PrecipitationIn,Events,Conditions,WindDirDegrees,DateUTC
12:13 AM,56.7,55.4,96,29.79,3.0,SW,4.6,-,N/A,,Overcast,220,2012-10-24 05:13:00
12:34 AM,56.7,55.4,96,29.79,4.0,SSW,4.6,-,N/A,,Overcast,210,2012-10-24 05:34:00
1:13 AM,56.5,55.4,96,29.81,3.0,WSW,4.6,-,N/A,,Overcast,240,2012-10-24 06:13:00
1:33 AM,56.3,55.0,96,29.81,3.0,Calm,Calm,-,N/A,,Overcast,0,2012-10-24 06:33:00
1:54 AM,55.2,54.0,96,29.80,2.5,Calm,Calm,-,N/A,,Mist,0,2012-10-24 06:54:00
2:13 AM,54.5,53.8,97,29.83,2.0,WSW,5.8,-,N/A,,Overcast,250,2012-10-24 07:13:00
2:33 AM,54.9,54.1,97,29.82,2.5,West,5.8,-,N/A,,Overcast,280,2012-10-24 07:33:00
2:54 AM,55.4,54.0,95,29.82,5.0,WNW,6.9,-,N/A,,Overcast,300,2012-10-24 07:54:00
3:14 AM,54.7,53.1,94,29.82,5.0,WNW,9.2,-,N/A,,Overcast,300,2012-10-24 08:14:00
3:34 AM,54.0,51.8,92,29.83,7.0,WNW,6.9,-,N/A,,Overcast,290,2012-10-24 08:34:00
3:53 AM,53.1,51.1,93,29.83,7.0,WNW,8.1,-,N/A,,Overcast,300,2012-10-24 08:53:00
4:13 AM,52.7,50.9,94,29.83,7.0,WNW,4.6,-,N/A,,Overcast,290,2012-10-24 09:13:00
4:33 AM,52.7,50.7,93,29.83,7.0,WNW,6.9,-,N/A,,Overcast,300,2012-10-24 09:33:00
4:53 AM,51.8,49.6,92,29.83,10.0,NNW,6.9,-,N/A,,Overcast,330,2012-10-24 09:53:00
5:14 AM,51.1,49.1,93,29.84,10.0,WNW,6.9,-,N/A,,Overcast,300,2012-10-24 10:14:00
5:33 AM,50.0,48.6,95,29.85,7.0,Calm,Calm,-,N/A,,Overcast,0,2012-10-24 10:33:00
5:53 AM,49.3,48.0,95,29.85,7.0,Calm,Calm,-,N/A,,Mostly Cloudy,0,2012-10-24 10:53:00
6:13 AM,48.2,47.1,96,29.85,7.0,Calm,Calm,-,N/A,,Clear,0,2012-10-24 11:13:00
6:33 AM,47.5,46.4,96,29.86,7.0,Calm,Calm,-,N/A,,Mostly Cloudy,0,2012-10-24 11:33:00
6:53 AM,47.3,46.0,95,29.89,7.0,Calm,Calm,-,N/A,,Overcast,0,2012-10-24 11:53:00
7:14 AM,47.5,46.6,97,29.89,5.0,NW,8.1,-,0.01,,Overcast,310,2012-10-24 12:14:00
7:34 AM,47.7,46.8,97,29.90,7.0,NW,5.8,-,0.01,,Overcast,310,2012-10-24 12:34:00
7:53 AM,48.2,46.9,95,29.89,7.0,NW,9.2,-,0.01,,Overcast,320,2012-10-24 12:53:00
8:13 AM,48.0,46.4,94,29.90,7.0,NW,10.4,-,N/A,,Overcast,320,2012-10-24 13:13:00
8:34 AM,47.3,45.7,94,29.89,7.0,NW,13.8,-,N/A,,Overcast,310,2012-10-24 13:34:00
8:54 AM,47.5,46.4,96,29.89,5.0,Calm,Calm,-,N/A,,Overcast,0,2012-10-24 13:54:00
9:13 AM,47.3,46.0,95,29.89,7.0,North,5.8,-,N/A,,Overcast,350,2012-10-24 14:13:00
9:33 AM,47.3,46.0,95,29.88,7.0,North,4.6,-,N/A,,Overcast,350,2012-10-24 14:33:00
9:54 AM,46.8,45.5,95,29.88,7.0,North,6.9,-,N/A,,Overcast,360,2012-10-24 14:54:00
10:13 AM,46.4,45.3,96,29.88,7.0,North,8.1,-,N/A,,Overcast,10,2012-10-24 15:13:00
10:33 AM,46.4,45.0,95,29.88,7.0,North,6.9,-,N/A,,Overcast,350,2012-10-24 15:33:00
10:54 AM,46.6,45.3,95,29.86,7.0,North,6.9,-,N/A,,Overcast,10,2012-10-24 15:54:00
11:14 AM,47.3,45.7,94,29.88,7.0,NNE,5.8,-,N/A,,Overcast,20,2012-10-24 16:14:00
11:33 AM,47.5,45.9,94,29.89,7.0,Calm,Calm,-,N/A,,Overcast,0,2012-10-24 16:33:00
11:53 AM,47.3,45.7,94,29.89,7.0,North,4.6,-,N/A,,Overcast,350,2012-10-24 16:53:00
12:13 PM,47.7,45.9,93,29.89,7.0,NNW,5.8,-,N/A,,Overcast,330,2012-10-24 17:13:00
12:33 PM,48.4,46.4,93,29.87,10.0,NW,9.2,-,N/A,,Overcast,310,2012-10-24 17:33:00
12:53 PM,49.5,46.9,91,29.84,10.0,NNW,10.4,-,N/A,,Overcast,330,2012-10-24 17:53:00
1:13 PM,50.0,46.9,89,29.84,10.0,NW,12.7,16.1,N/A,,Overcast,320,2012-10-24 18:13:00
1:34 PM,49.5,45.9,87,29.82,10.0,NNW,8.1,18.4,N/A,,Overcast,340,2012-10-24 18:34:00
1:53 PM,49.5,45.9,87,29.84,10.0,NNW,4.6,-,N/A,,Overcast,330,2012-10-24 18:53:00
2:13 PM,49.5,45.9,87,29.84,10.0,NNW,6.9,-,N/A,,Overcast,340,2012-10-24 19:13:00
2:34 PM,50.0,46.2,87,29.84,10.0,North,5.8,-,N/A,,Overcast,350,2012-10-24 19:34:00
2:53 PM,50.4,46.2,86,29.83,10.0,NNW,9.2,-,N/A,,Overcast,340,2012-10-24 19:53:00
3:13 PM,49.8,45.9,86,29.83,10.0,NW,10.4,16.1,N/A,,Overcast,320,2012-10-24 20:13:00
3:34 PM,49.6,45.1,84,29.83,10.0,NNW,10.4,-,N/A,,Overcast,330,2012-10-24 20:34:00
4:13 PM,49.5,44.6,83,29.84,10.0,NNW,9.2,18.4,N/A,,Overcast,340,2012-10-24 21:13:00
4:34 PM,48.7,44.4,85,29.84,10.0,NNW,11.5,17.3,N/A,,Overcast,330,2012-10-24 21:34:00
4:53 PM,48.4,44.6,87,29.83,10.0,North,11.5,-,N/A,,Overcast,360,2012-10-24 21:53:00
5:13 PM,48.0,43.2,83,29.83,10.0,North,11.5,18.4,N/A,,Overcast,360,2012-10-24 22:13:00
5:33 PM,47.5,42.8,84,29.83,10.0,North,10.4,18.4,N/A,,Overcast,350,2012-10-24 22:33:00
5:53 PM,47.3,41.9,82,29.83,10.0,NNW,10.4,18.4,N/A,,Overcast,340,2012-10-24 22:53:00
6:13 PM,46.8,41.7,83,29.83,10.0,NNW,10.4,-,N/A,,Overcast,340,2012-10-24 23:13:00
6:33 PM,46.4,41.7,84,29.82,10.0,NNW,10.4,17.3,N/A,,Overcast,330,2012-10-24 23:33:00
6:53 PM,46.0,41.0,83,29.83,10.0,NNW,10.4,16.1,N/A,,Overcast,330,2012-10-24 23:53:00
7:13 PM,46.0,40.6,81,29.83,10.0,North,11.5,-,N/A,,Overcast,350,2012-10-25 00:13:00
7:53 PM,46.2,40.5,80,29.83,10.0,North,9.2,-,N/A,,Drizzle,350,2012-10-25 00:53:00
8:13 PM,45.9,40.3,81,29.84,10.0,NNW,10.4,-,N/A,,Drizzle,340,2012-10-25 01:13:00
8:33 PM,45.7,40.1,81,29.84,10.0,North,9.2,18.4,N/A,,Overcast,350,2012-10-25 01:33:00
8:53 PM,45.5,39.7,80,29.86,10.0,NNW,9.2,17.3,N/A,,Overcast,340,2012-10-25 01:53:00
9:14 PM,45.1,39.7,81,29.86,10.0,NNW,9.2,17.3,N/A,,Overcast,340,2012-10-25 02:14:00
9:33 PM,45.0,39.4,81,29.87,10.0,NNW,10.4,-,N/A,,Light Drizzle,330,2012-10-25 02:33:00
9:53 PM,44.6,39.4,82,29.86,10.0,NNW,10.4,-,N/A,,Overcast,330,2012-10-25 02:53:00
10:14 PM,44.6,39.2,81,29.89,10.0,NNW,8.1,-,N/A,,Overcast,330,2012-10-25 03:14:00
10:33 PM,43.7,39.2,84,29.88,10.0,NNW,11.5,17.3,N/A,Rain,Rain,330,2012-10-25 03:33:00
10:53 PM,42.8,39.2,87,29.88,7.0,NNW,9.2,-,N/A,Rain,Rain,330,2012-10-25 03:53:00
11:14 PM,41.9,39.2,90,29.85,10.0,NNW,12.7,17.3,0.02,Rain,Light Rain,340,2012-10-25 04:14:00
11:34 PM,41.7,38.7,89,29.84,10.0,NNW,11.5,18.4,0.02,Rain,Light Rain,330,2012-10-25 04:34:00
11:53 PM,41.9,38.5,88,29.85,10.0,North,10.4,19.6,0.02,,Overcast,350,2012-10-25 04:53:00